Location: Newark
(35.2161°N, 26.1013°E)
Time: 23:01:42
(UTC+00:00)

Envisat - Visible Passes

Search period start: 12 November 2019 00:00
Search period end: 22 November 2019 00:00
Orbit: 764 x 766 km, 98.1° (Epoch: 12 November)

Date Brightness Start Highest point End Pass type
(mag) Time Alt. Az. Time Alt. Az. Time Alt. Az.
12 Nov 6.4 03:46:50 10° ENE 03:48:44 12° E 03:50:38 10° ESE visible
12 Nov 3.3 16:34:16 10° S 16:39:18 68° WSW 16:44:22 10° NNW visible
13 Nov 3.1 15:57:43 10° SSE 16:02:36 51° ENE 16:07:30 10° N visible
13 Nov 5.9 17:38:56 10° SW 17:41:52 15° W 17:44:48 10° WNW visible
14 Nov 5.8 04:10:30 10° NE 04:14:28 23° E 04:18:24 10° SSE visible
14 Nov 4.5 17:00:12 10° SSW 17:04:51 36° W 17:09:32 10° NNW visible
15 Nov 3.0 16:22:57 10° SSE 16:28:01 87° WSW 16:33:08 10° NNW visible
16 Nov 3.4 15:46:42 10° SE 15:51:23 39° ENE 15:56:06 10° N visible
16 Nov 5.5 17:26:50 10° SW 17:30:30 20° W 17:34:11 10° NW visible
17 Nov 6.0 03:59:45 10° NE 04:03:07 18° E 04:06:27 10° SE visible
17 Nov 4.0 16:48:41 10° S 16:53:33 47° W 16:58:26 10° NNW visible
18 Nov 2.9 16:11:44 10° SSE 16:16:46 73° ENE 16:21:50 10° N visible
18 Nov 6.3 17:55:39 10° W 17:56:14 10° W 17:56:51 10° W visible
19 Nov 5.1 04:24:14 10° NE 04:28:46 32° E 04:33:16 10° SSE visible
19 Nov 3.7 15:35:47 10° SE 15:40:11 31° ENE 15:44:37 10° N visible
19 Nov 5.1 17:14:58 10° SSW 17:19:09 26° W 17:23:20 10° NW visible
20 Nov 6.2 03:49:18 10° ENE 03:51:44 13° E 03:54:09 10° ESE visible
20 Nov 3.5 16:37:15 10° S 16:42:15 61° W 16:47:17 10° NNW visible
21 Nov 3.0 16:00:35 10° SSE 16:05:32 56° ENE 16:10:30 10° N visible
21 Nov 6.0 17:42:18 10° WSW 17:44:51 14° W 17:47:24 10° WNW visible
